[[{"header":{"parameterUnit":"m.s-1","parameterCategory":1,"la1":30.2991,"la2":30.254,"lo1":-89.0895,"lo2":-89.0444,"dy":0.0017,"dx":0.0017,"nx":28,"ny":28,"refTime":"2025-05-23T03:00:00:Z","depth":0,"parameterNumber":2,"parameterNumberName":"U-component_of_WINDS"},"data":[0,0,0,0,0,0,0,0,0,0,0,0,0,0,0,0,0,0,0,0,0,0,0,0,0,0,0,0,0,0,0,0,0,0,0,0,0,0,0,0,0,0,0,0,0,0,0,0,0,0,0,0,0,0,0,0,0,0,-0.5419,-0.5418,0,-0.5344,-0.5344,-0.5343,-0.5294,-0.5294,-0.5293,-0.5293,-0.5217,-0.5215,-0.5214,0,0,0,0,0,0,0,0,0,0,0,0,0,-0.5518,-0.5516,-0.5419,-0.5418,-0.5417,-0.5345,-0.5344,-0.5343,-0.5294,-0.5294,-0.5293,-0.5293,-0.5218,-0.5215,-0.5213,0,0,0,0,0,0,0,0,0,0,0,0,0,-0.5463,-0.5516,-0.5419,-0.5384,-0.538,-0.5345,-0.5344,-0.5342,-0.5294,-0.5294,-0.5293,-0.5293,-0.5218,-0.5216,-0.5213,-0.5207,0,0,-0.5205,-0.5204,0,0,0,0,0,0,0,0,-0.5466,-0.5459,-0.539,-0.5386,-0.5382,-0.5328,-0.5351,-0.5297,-0.5294,-0.5327,-0.5293,-0.5292,-0.5254,-0.5249,-0.5236,-0.5203,-0.52,-0.5205,-0.5203,-0.5202,-0.5202,0,0,0,0,0,0,0,-0.547,-0.5462,-0.5389,-0.5389,-0.5384,-0.5372,-0.5363,-0.534,-0.5294,-0.5324,-0.532,-0.5312,-0.5252,-0.5238,-0.5234,-0.5199,-0.5205,-0.5203,-0.5201,-0.52,-0.5158,-0.5158,0,0,0,0,0,0,-0.5479,-0.5465,-0.5392,-0.5387,-0.5423,-0.537,-0.5361,-0.5346,-0.5294,-0.5286,-0.5312,-0.531,-0.5243,-0.5237,-0.5231,-0.5221,-0.5202,-0.52,-0.5198,-0.5157,-0.5158,-0.5158,0,0,0,0,0,0,-0.5481,-0.5473,-0.5395,-0.5425,-0.5414,-0.5369,-0.5352,-0.5344,-0.5331,-0.5286,-0.5277,-0.5307,-0.5242,-0.5234,-0.5213,-0.5217,-0.5199,-0.5196,-0.5157,-0.5158,-0.5158,-0.52,0,0,0,0,0,0,-0.5484,-0.5474,-0.5471,-0.5425,-0.5413,-0.5379,-0.5353,-0.5343,-0.5327,-0.5323,-0.5278,-0.5271,-0.5241,-0.5217,-0.5211,-0.5213,-0.5194,-0.5156,-0.5157,-0.5158,-0.5198,-0.5202,-0.5205,0,0,0,0,0,-0.5488,-0.5486,-0.5471,-0.5463,-0.5408,-0.5379,-0.5372,-0.5338,-0.5327,-0.5324,-0.5295,-0.5272,-0.5218,-0.5216,-0.5208,-0.521,-0.5156,-0.5157,-0.5158,-0.5196,-0.5201,-0.5205,0,0,0,0,0,0,-0.5533,-0.5479,-0.5463,-0.5445,-0.5417,-0.5371,-0.5366,-0.5344,-0.5318,-0.5316,-0.5275,-0.5266,-0.5249,-0.5227,-0.5225,-0.5201,-0.5184,-0.5184,-0.5216,-0.522,-0.5224,-0.523,-0.5192,0,0,0,0,0,-0.5541,-0.5522,-0.5475,-0.5465,-0.5451,-0.5411,-0.5397,-0.5374,-0.5343,-0.533,-0.53,-0.5271,-0.5247,-0.5232,-0.5208,-0.5194,-0.5184,-0.5192,-0.5195,-0.5199,-0.5199,-0.5191,-0.5194,-0.5162,-0.5162,-0.5162,0,0,-0.5557,-0.5525,-0.5515,-0.5473,-0.5448,-0.5429,-0.5401,-0.5382,-0.5368,-0.5327,-0.5306,-0.5282,-0.5247,-0.523,-0.5221,-0.5211,-0.5205,-0.52,-0.5203,-0.5201,-0.5192,-0.5195,-0.5198,-0.5162,-0.5162,-0.5162,0,0,-0.5577,-0.5551,-0.5539,-0.5515,-0.5478,-0.5451,-0.5449,-0.5406,-0.5389,-0.5366,-0.5336,-0.5318,-0.5278,-0.5254,-0.5237,-0.5248,-0.5226,-0.5241,-0.5261,-0.5253,-0.5256,-0.5258,-0.5262,-0.5264,-0.5241,-0.5241,-0.5242,0,-0.5602,-0.5572,-0.5536,-0.5519,-0.5501,-0.5464,-0.5452,-0.543,-0.5388,-0.5376,-0.5366,-0.5315,-0.5289,-0.5266,-0.5269,-0.5256,-0.5252,-0.5246,-0.5258,-0.526,-0.5261,-0.5265,-0.5267,-0.5244,-0.5243,-0.5243,-0.5243,0,-0.5605,-0.5584,-0.5579,-0.5539,-0.5521,-0.5507,-0.5469,-0.5454,-0.5433,-0.5407,-0.5385,-0.5352,-0.5321,-0.5313,-0.5292,-0.5287,-0.5283,-0.5266,-0.5248,-0.5267,-0.527,-0.5271,-0.5247,-0.5246,-0.5245,-0.5245,0,0,-0.5651,-0.5592,-0.559,-0.5572,-0.5529,-0.5512,-0.5496,-0.5466,-0.5455,-0.5426,-0.5412,-0.5379,-0.5363,-0.5344,-0.5319,-0.5312,-0.5324,-0.5296,-0.5295,-0.5303,-0.5318,-0.5332,-0.5335,-0.5309,-0.5309,-0.5309,-0.5322,0,-0.5665,-0.5635,-0.5602,-0.5583,-0.5565,-0.5529,-0.5515,-0.5487,-0.5462,-0.5443,-0.5415,-0.5393,-0.5374,-0.5362,-0.5353,-0.5325,-0.5327,-0.5323,-0.5296,-0.5296,-0.5307,-0.5336,-0.535,-0.5364,-0.5323,-0.5323,-0.5323,0,-0.5678,-0.5652,-0.5631,-0.559,-0.5581,-0.5569,-0.5538,-0.552,-0.5487,-0.547,-0.5449,-0.5422,-0.5404,-0.5388,-0.5362,-0.536,-0.5347,-0.5331,-0.5331,-0.5328,-0.5311,-0.5335,-0.5367,-0.5369,-0.5324,-0.5324,-0.5324,0,-0.5715,-0.5675,-0.5657,-0.5642,-0.5593,-0.5586,-0.5565,-0.5532,-0.5516,-0.5489,-0.5479,-0.545,-0.5435,-0.5413,-0.538,-0.5371,-0.5358,-0.5339,-0.5344,-0.5345,-0.5343,-0.5344,-0.5375,-0.5333,-0.5333,-0.5333,-0.5333,0,-0.5735,-0.5724,-0.5673,-0.5663,-0.565,-0.5612,-0.56,-0.5576,-0.5547,-0.5531,-0.5498,-0.5484,-0.544,-0.5421,-0.5395,-0.5378,-0.5371,-0.5356,-0.535,-0.536,-0.5362,-0.5352,-0.535,-0.5334,-0.5334,-0.5333,-0.5333,0,-0.5775,-0.574,-0.5719,-0.5675,-0.5663,-0.5656,-0.5618,-0.5606,-0.558,-0.556,-0.5553,-0.5512,-0.5488,-0.5452,-0.5417,-0.5399,-0.5387,-0.5375,-0.5398,-0.5394,-0.5401,-0.5401,-0.5427,-0.5429,-0.5386,-0.5386,-0.5386,0,-0.5791,-0.5781,-0.5736,-0.5723,-0.5704,-0.5683,-0.5667,-0.5629,-0.5613,-0.5576,-0.5569,-0.5542,-0.5518,-0.5481,-0.5448,-0.5421,-0.5409,-0.542,-0.5405,-0.5416,-0.541,-0.5412,-0.5411,-0.5424,-0.5425,-0.5425,-0.5426,0,-0.5822,-0.5805,-0.5783,-0.5755,-0.5736,-0.5712,-0.5686,-0.5677,-0.5634,-0.5618,-0.5593,-0.5575,-0.5539,-0.5513,-0.5481,-0.546,-0.5436,-0.5431,-0.543,-0.5441,-0.5455,-0.5449,-0.5409,-0.543,-0.543,-0.543,-0.5429,-0.5429,-0.5851,-0.5841,-0.5808,-0.5784,-0.5761,-0.5738,-0.5725,-0.5697,-0.5675,-0.5643,-0.5622,-0.5598,-0.5566,-0.5521,-0.5501,-0.5482,-0.5472,-0.5471,-0.5471,-0.5472,-0.5476,-0.5457,-0.5476,-0.5475,-0.5475,-0.5475,-0.5475,0,-0.5881,-0.5858,-0.5837,-0.5802,-0.5783,-0.5762,-0.5732,-0.5718,-0.5698,-0.567,-0.5647,-0.5619,-0.5593,-0.5558,-0.553,-0.5521,-0.551,-0.5515,-0.5516,-0.5512,-0.5486,-0.549,-0.5525,-0.5525,-0.5525,-0.5525,-0.5525,-0.5525,-0.5895,-0.5878,-0.5858,-0.5829,-0.5805,-0.5782,-0.5767,-0.5746,-0.5723,-0.5693,-0.5672,-0.5649,-0.5618,-0.5587,-0.5563,-0.5553,-0.5545,-0.5554,-0.5541,-0.5518,-0.5514,-0.5509,-0.5512,-0.5552,-0.5552,-0.5569,-0.5569,-0.5569]},{"header":{"parameterUnit":"m.s-1","parameterCategory":1,"la1":30.2991,"la2":30.254,"lo1":-89.0895,"lo2":-89.0444,"dy":0.0017,"dx":0.0017,"nx":28,"ny":28,"refTime":"2025-05-23T03:00:00:Z","depth":0,"parameterNumber":3,"parameterNumberName":"V-component_of_WINDS"},"data":[0,0,0,0,0,0,0,0,0,0,0,0,0,0,0,0,0,0,0,0,0,0,0,0,0,0,0,0,0,0,0,0,0,0,0,0,0,0,0,0,0,0,0,0,0,0,0,0,0,0,0,0,0,0,0,0,0,0,1.2544,1.2544,0,1.2561,1.2561,1.2561,1.2531,1.253,1.2529,1.2528,1.2546,1.2548,1.2549,0,0,0,0,0,0,0,0,0,0,0,0,0,1.2483,1.2484,1.2544,1.2544,1.2544,1.2561,1.2561,1.2562,1.2531,1.253,1.2529,1.2528,1.2546,1.2548,1.2549,0,0,0,0,0,0,0,0,0,0,0,0,0,1.2506,1.2485,1.2544,1.2531,1.253,1.2561,1.2561,1.2562,1.2532,1.253,1.2529,1.2527,1.2545,1.2547,1.255,1.2594,0,0,1.2556,1.2557,0,0,0,0,0,0,0,0,1.2505,1.2508,1.2533,1.2532,1.2531,1.2542,1.2547,1.2572,1.2532,1.2531,1.2528,1.2526,1.2546,1.2548,1.2555,1.2594,1.2595,1.2556,1.2558,1.2559,1.2559,0,0,0,0,0,0,0,1.2503,1.2507,1.255,1.2533,1.2532,1.2524,1.2526,1.2551,1.2547,1.2531,1.2529,1.2531,1.2546,1.2553,1.2555,1.2596,1.2556,1.2558,1.256,1.256,1.267,1.2672,0,0,0,0,0,0,1.2503,1.2506,1.255,1.2551,1.2514,1.2527,1.2528,1.254,1.2547,1.2546,1.2533,1.253,1.255,1.2553,1.2556,1.2607,1.2559,1.2561,1.2562,1.2669,1.2671,1.2672,0,0,0,0,0,0,1.2502,1.2507,1.2549,1.2528,1.2533,1.2529,1.2543,1.2541,1.2549,1.2548,1.2547,1.2541,1.2549,1.2553,1.2584,1.2607,1.2562,1.2564,1.2667,1.2669,1.2672,1.271,0,0,0,0,0,0,1.25,1.2507,1.2524,1.2529,1.2534,1.2578,1.2544,1.2543,1.2553,1.2549,1.2556,1.2555,1.2548,1.2581,1.2586,1.2609,1.2565,1.2665,1.2668,1.2671,1.2707,1.2713,1.2719,0,0,0,0,0,1.2498,1.2535,1.2525,1.2531,1.2555,1.2579,1.2582,1.2573,1.2555,1.2571,1.2571,1.2555,1.2604,1.2584,1.259,1.2614,1.2663,1.2667,1.2671,1.2704,1.2712,1.2719,0,0,0,0,0,0,1.2534,1.2535,1.2525,1.2564,1.2571,1.2574,1.2595,1.2582,1.2596,1.2592,1.258,1.2582,1.2615,1.2618,1.2597,1.2656,1.263,1.2635,1.2654,1.2661,1.2668,1.2666,1.2567,0,0,0,0,0,1.2546,1.2565,1.2565,1.26,1.2604,1.2599,1.2609,1.2601,1.2609,1.2612,1.2614,1.2622,1.2638,1.265,1.2666,1.2707,1.2707,1.2726,1.2732,1.2737,1.2742,1.2762,1.277,1.2684,1.2684,1.2684,0,0,1.2571,1.2575,1.2588,1.2607,1.2612,1.2632,1.2602,1.2625,1.2639,1.2616,1.2645,1.2646,1.2654,1.269,1.2706,1.2693,1.2765,1.2742,1.2746,1.2747,1.2767,1.2775,1.2782,1.2687,1.2687,1.2686,0,0,1.2628,1.2633,1.2661,1.2667,1.2675,1.2671,1.2678,1.2682,1.2682,1.2711,1.2693,1.271,1.274,1.2746,1.2753,1.281,1.2796,1.2816,1.2848,1.2869,1.2875,1.2881,1.2901,1.2908,1.282,1.282,1.282,0,1.2659,1.2689,1.2678,1.2701,1.271,1.2688,1.2717,1.2723,1.2735,1.2742,1.2727,1.2762,1.2767,1.2803,1.2817,1.2823,1.283,1.2815,1.2875,1.2881,1.2886,1.2905,1.2913,1.2822,1.2822,1.2822,1.2822,0,1.2726,1.2746,1.2768,1.278,1.2791,1.2817,1.281,1.2822,1.2813,1.281,1.284,1.2843,1.2859,1.2867,1.2859,1.2902,1.2893,1.2877,1.2851,1.2897,1.2914,1.2922,1.2826,1.2825,1.2824,1.2824,0,0,1.2807,1.2811,1.2819,1.2824,1.283,1.2846,1.287,1.2885,1.2895,1.2904,1.2924,1.2949,1.2933,1.2941,1.2933,1.2951,1.2995,1.2932,1.2932,1.2943,1.3042,1.3054,1.3062,1.2985,1.2987,1.2988,1.3041,0,1.2862,1.2904,1.2894,1.2936,1.2954,1.2933,1.2954,1.296,1.2958,1.2973,1.297,1.2988,1.2967,1.2971,1.2988,1.2986,1.3014,1.2982,1.3003,1.3004,1.3002,1.3072,1.3085,1.3135,1.3048,1.3049,1.305,0,1.2934,1.2945,1.2988,1.2989,1.2997,1.3016,1.3028,1.3042,1.3048,1.3045,1.3053,1.3041,1.3065,1.3038,1.307,1.3048,1.3056,1.3056,1.3058,1.3059,1.303,1.3075,1.3151,1.3158,1.306,1.306,1.3059,0,1.2987,1.3013,1.3041,1.3046,1.3049,1.3063,1.3065,1.3069,1.3078,1.3089,1.3094,1.3107,1.3114,1.3124,1.3116,1.3097,1.3149,1.3122,1.3147,1.3147,1.3158,1.3158,1.3237,1.3164,1.3164,1.3164,1.3164,0,1.3051,1.3078,1.3065,1.3083,1.3112,1.31,1.3129,1.3129,1.3132,1.3149,1.3132,1.3148,1.3136,1.3151,1.3144,1.3171,1.3175,1.3173,1.317,1.3174,1.3174,1.3179,1.3175,1.3166,1.3165,1.3165,1.3165,0,1.3116,1.3109,1.3138,1.3139,1.3139,1.3161,1.316,1.3176,1.3173,1.3194,1.3198,1.3192,1.3209,1.3201,1.3219,1.3214,1.3248,1.3242,1.3246,1.3244,1.327,1.3267,1.3354,1.3365,1.3286,1.3286,1.3287,0,1.3157,1.3177,1.3179,1.3188,1.3191,1.3208,1.3216,1.3205,1.3214,1.3222,1.3237,1.3251,1.3263,1.329,1.3287,1.33,1.3293,1.3323,1.3295,1.3298,1.3293,1.3292,1.3293,1.3328,1.3329,1.333,1.3331,0,1.323,1.3225,1.3238,1.325,1.326,1.3269,1.3276,1.3285,1.3274,1.3285,1.3302,1.331,1.3327,1.3342,1.3353,1.3355,1.3341,1.3339,1.3346,1.3349,1.3351,1.335,1.3261,1.3337,1.3337,1.3336,1.3336,1.3336,1.3284,1.33,1.3304,1.3318,1.3322,1.3329,1.3344,1.3341,1.3354,1.3367,1.3359,1.3378,1.3382,1.3395,1.3399,1.3413,1.3402,1.3411,1.3413,1.3416,1.3419,1.3349,1.3415,1.3415,1.3415,1.3415,1.3415,0,1.3356,1.3356,1.337,1.338,1.3391,1.3376,1.3383,1.3394,1.341,1.3415,1.3426,1.3444,1.3458,1.3456,1.3468,1.348,1.3474,1.3484,1.3483,1.3483,1.3429,1.3422,1.3489,1.3489,1.3489,1.3489,1.3489,1.3489,1.3394,1.3421,1.3416,1.3444,1.3444,1.3462,1.3467,1.3473,1.3477,1.3497,1.3509,1.3507,1.3508,1.3521,1.3532,1.3531,1.3536,1.3549,1.3545,1.3495,1.3487,1.348,1.3474,1.355,1.355,1.3598,1.3599,1.3599]}]]